This is the latest recevied weather packets stored in our database for station/object WMKP. If no packets are shown the sender has not sent any weather packets the latest 10 day(s).
| Time | Temp. | Humidity | Pressure | Rain* | Wind** | Luminosity | Snow |
|---|---|---|---|---|---|---|---|
| 1777821595 | 26.67° C | 83% | 1010 hPa | - | - | - | - |
| 1777821025 | 26.67° C | 83% | 1010 hPa | - | - | - | - |
| 1777817417 | 27.78° C | 83% | 1009 hPa | - | - | - | - |
| 1777810228 | 28.89° C | 70% | 1007 hPa | - | - | - | - |
| 1777806623 | 30° C | 70% | 1006 hPa | - | - | - | - |
| 1777803019 | 30.56° C | 66% | 1005 hPa | - | - | - | - |
| 1777801204 | 30.56° C | 66% | 1005 hPa | - | - | - | - |
| 1777799419 | 30.56° C | 62% | 1005 hPa | - | - | - | - |
| 1777797601 | 31.67° C | 62% | 1005 hPa | - | - | - | - |
| 1777795827 | 31.67° C | 62% | 1005 hPa | - | - | - | - |
| 1777794005 | 31.67° C | 62% | 1006 hPa | - | - | - | - |
| 1777792220 | 30.56° C | 70% | 1007 hPa | - | - | - | - |
| 1777790401 | 30.56° C | 70% | 1007 hPa | - | - | - | - |
| 1777788619 | 30° C | 74% | 1008 hPa | - | - | - | - |
| 1777786804 | 26.67° C | 83% | 1009 hPa | - | - | - | - |
| 1777786193 | 28.89° C | 79% | 1009 hPa | - | - | - | - |
| 1777785019 | 30° C | 74% | 1009 hPa | - | - | - | - |
| 1777783202 | 31.67° C | 66% | 1010 hPa | - | - | - | - |
| 1777781426 | 30.56° C | 70% | 1010 hPa | - | - | - | - |
| 1777779601 | 30° C | 74% | 1010 hPa | - | - | - | - |
| 1777777820 | 28.89° C | 79% | 1010 hPa | - | - | - | - |
| 1777776001 | 28.89° C | 79% | 1010 hPa | - | - | - | - |
| 1777774223 | 28.89° C | 79% | 1010 hPa | - | - | - | - |
| 1777767026 | 26.67° C | 83% | 1009 hPa | - | - | - | - |
| 1777763420 | 25.56° C | 88% | 1008 hPa | - | - | - | - |
* Rain since midnight (hover to see other rain measurements)
** Current wind speed in m/s (hover to see current wind gust speed)